Weather in As-Samawah

Iraq     31°18′51″N   45°16′37″E
temp.,
°C
wind,
m/s
gust,
m/s
humid.,
%
clouds,
%
prec.,
mm/h
press.,
hPa
HPBL,
m
6 march, sat
sat600:00+17nw23330 0.0 102263
03:00+16wnw34350 0.0 102257
06:00+15nw45390 0.0 102360
09:00+18nw57320 0.0 1024559
12:00+22nw79230 0.0 10221350
15:00+23nw78160 0.0 10201639
18:00+21wnw69190 0.0 1020376
21:00+18nw68260 0.0 1020217
7 march, sun
sun700:00+17nw46330 0.0 1020110
03:00+16wnw45380 0.0 101977
06:00+15wnw34410 0.0 101950
09:00+18nw34300 0.0 1019323
12:00+22wnw44220 0.0 10171120
15:00+23w34190 0.0 10141378
18:00+22w23210 0.0 1013151
21:00+20w22240 0.0 101452
8 march, mon
mon800:00+18s11270 0.0 101423
03:00+18s34250 0.0 101330
06:00+17s44280 0.0 101336
09:00+21sse56210 0.0 1014308
12:00+25sse56150 0.0 10121057
15:00+27ssw45140 0.0 10091921
18:00+25s34170 0.0 1009319
21:00+23nnw56200 0.0 1011130
9 march, tue
tue900:00+20n57260 0.0 1012142
03:00+17n45310 0.0 101299
06:00+16n34390 0.0 101458
09:00+20nnw23320 0.0 1016367
12:00+23nw44250 0.0 10161231
15:00+24wnw56200 0.0 10141941
18:00+23wnw46230 0.0 1015330
21:00+21n23281 0.0 101754
10 march, wed
wed1000:00+19n34350 0.0 101759
03:00+17ne23404 0.0 101646
06:00+16e23430 0.0 101740
09:00+20se45320 0.0 1018364
12:00+24s44230 0.0 10171078
15:00+26ssw23170 0.0 10141594
18:00+25se23180 0.0 1013191
21:00+23se56200 0.0 101497